User: anonymous   Login
Location: �clusier
(49.9361°N, 2.7869°E)
Time: 01:10:45
(UTC+00:00)
Language:

Cosmos 1992 Rocket - Orbit

View from above orbital plane
View from above orbital plane
View from above satellite
View from above satellite

Ground track
Ground track

The orbit data is extracted from the following two-line orbital elements,

1 19770U 89005B   21267.93872413  .00000123  00000-0  48484-4 0  9999
2 19770  74.0454  52.4970 0003908 108.0762  35.8358 14.38883965710758
Epoch (UTC): 24 September 2021 22:31:45
Eccentricity: 0.0003908
inclination: 74.0454°
perigee height: 759 km
apogee height: 765 km
right ascension of ascending node: 52.4970°
argument of perigee: 108.0762°
revolutions per day: 14.38883965
mean anomaly at epoch: 35.8358°
orbit number at epoch: 71075

The dashed part of the orbit path shows where the satellite is in the earth's shadow,  

DLR